TimeEDT,TemperatureF,Dew PointF,Humidity,Sea Level PressureIn,VisibilityMPH,Wind Direction,Wind SpeedMPH,Gust SpeedMPH,PrecipitationIn,Events,Conditions,WindDirDegrees,DateUTC
12:10 AM,41.0,35.6,81,29.46,10.0,SSE,6.9,-,N/A,,Overcast,160,2012-11-01 04:10:00
12:55 AM,41.4,35.8,81,29.46,10.0,SSE,8.1,-,N/A,,Overcast,160,2012-11-01 04:55:00
1:32 AM,41.0,35.6,81,29.46,10.0,SSE,6.9,-,N/A,,Overcast,150,2012-11-01 05:32:00
1:55 AM,41.0,36.3,83,29.45,10.0,SSE,6.9,-,N/A,,Overcast,150,2012-11-01 05:55:00
2:55 AM,41.2,37.0,85,29.45,10.0,South,5.8,-,N/A,,Mostly Cloudy,170,2012-11-01 06:55:00
2:56 AM,41.0,37.4,87,29.45,10.0,South,5.8,-,N/A,,Light Drizzle,170,2012-11-01 06:56:00
3:16 AM,41.0,37.4,87,29.44,10.0,South,5.8,-,N/A,,Mostly Cloudy,180,2012-11-01 07:16:00
3:55 AM,41.2,36.7,84,29.43,10.0,South,5.8,-,0.00,,Overcast,170,2012-11-01 07:55:00
4:48 AM,41.0,37.4,87,29.42,10.0,SSE,8.1,-,N/A,,Overcast,150,2012-11-01 08:48:00
4:55 AM,41.4,37.2,85,29.42,10.0,SSE,8.1,-,N/A,,Overcast,150,2012-11-01 08:55:00
5:47 AM,41.0,37.4,87,29.42,10.0,SSE,8.1,-,N/A,,Light Drizzle,160,2012-11-01 09:47:00
5:53 AM,41.0,37.4,87,29.42,10.0,SSE,8.1,-,N/A,,Light Drizzle,160,2012-11-01 09:53:00
5:55 AM,41.5,37.8,86,29.42,10.0,SSE,9.2,-,0.00,,Light Drizzle,160,2012-11-01 09:55:00
6:04 AM,41.0,37.4,87,29.42,10.0,SSE,8.1,-,N/A,,Scattered Clouds,150,2012-11-01 10:04:00
6:11 AM,41.0,37.4,87,29.42,10.0,SE,9.2,-,N/A,,Mostly Cloudy,140,2012-11-01 10:11:00
6:33 AM,41.0,39.2,93,29.41,10.0,SSE,8.1,-,N/A,,Light Drizzle,150,2012-11-01 10:33:00
6:36 AM,41.0,39.2,93,29.42,10.0,SSE,8.1,-,N/A,,Light Drizzle,150,2012-11-01 10:36:00
6:55 AM,41.5,39.0,91,29.41,10.0,SSE,8.1,-,0.00,Rain,Light Rain,150,2012-11-01 10:55:00
7:26 AM,41.0,39.2,93,29.42,9.0,SSE,9.2,-,N/A,,Overcast,150,2012-11-01 11:26:00
7:35 AM,41.0,39.2,93,29.42,7.0,SSE,10.4,-,N/A,,Overcast,150,2012-11-01 11:35:00
7:36 AM,41.0,39.2,93,29.41,8.0,SSE,10.4,-,N/A,,Overcast,150,2012-11-01 11:36:00
7:37 AM,41.0,39.2,93,29.41,8.0,SSE,10.4,-,N/A,Rain,Light Rain,150,2012-11-01 11:37:00
7:55 AM,41.4,40.1,95,29.41,10.0,SSE,9.2,-,0.04,Rain,Light Rain,150,2012-11-01 11:55:00
8:04 AM,41.0,41.0,100,29.42,10.0,SSE,11.5,-,N/A,,Light Drizzle,150,2012-11-01 12:04:00
8:29 AM,41.0,41.0,100,29.42,10.0,SSE,10.4,-,N/A,,Overcast,160,2012-11-01 12:29:00
8:45 AM,42.8,41.0,93,29.42,10.0,South,11.5,-,N/A,,Overcast,170,2012-11-01 12:45:00
8:55 AM,42.1,41.5,98,29.42,10.0,South,10.4,-,0.00,,Overcast,180,2012-11-01 12:55:00
9:06 AM,42.8,42.8,100,29.42,10.0,South,12.7,-,N/A,,Overcast,190,2012-11-01 13:06:00
9:46 AM,44.6,42.8,93,29.42,10.0,SSW,15.0,-,N/A,,Overcast,200,2012-11-01 13:46:00
9:55 AM,44.1,42.1,93,29.42,4.0,SSW,15.0,-,0.00,,Overcast,210,2012-11-01 13:55:00
9:57 AM,44.6,42.8,93,29.42,4.0,SSW,12.7,-,N/A,,Overcast,210,2012-11-01 13:57:00
10:03 AM,44.6,42.8,93,29.42,6.0,SSW,13.8,-,N/A,,Light Drizzle,210,2012-11-01 14:03:00
10:19 AM,44.6,42.8,93,29.42,2.5,SSW,12.7,-,N/A,,Overcast,210,2012-11-01 14:19:00
10:22 AM,44.6,42.8,93,29.42,2.5,SSW,13.8,-,N/A,,Overcast,210,2012-11-01 14:22:00
10:30 AM,44.6,42.8,93,29.42,2.5,SSW,10.4,-,N/A,,Overcast,210,2012-11-01 14:30:00
10:35 AM,44.6,42.8,93,29.42,3.0,SSW,12.7,-,N/A,,Overcast,210,2012-11-01 14:35:00
10:48 AM,44.6,42.8,93,29.42,10.0,SW,12.7,20.7,N/A,,Overcast,220,2012-11-01 14:48:00
10:55 AM,45.0,43.7,95,29.42,10.0,SW,9.2,18.4,0.01,,Overcast,220,2012-11-01 14:55:00
11:02 AM,44.6,42.8,93,29.42,10.0,SW,11.5,18.4,N/A,,Overcast,230,2012-11-01 15:02:00
11:04 AM,44.6,42.8,93,29.42,10.0,SW,11.5,18.4,N/A,,Light Drizzle,230,2012-11-01 15:04:00
11:22 AM,44.6,42.8,93,29.43,4.0,SW,15.0,19.6,N/A,Rain,Light Rain,230,2012-11-01 15:22:00
11:35 AM,44.6,42.8,93,29.43,4.0,WSW,12.7,-,N/A,Rain,Light Rain,240,2012-11-01 15:35:00
11:55 AM,44.2,42.8,95,29.44,10.0,WSW,15.0,23.0,0.02,Rain,Light Rain,240,2012-11-01 15:55:00
11:59 AM,44.6,42.8,93,29.44,10.0,WSW,11.5,21.9,N/A,Rain,Light Rain,240,2012-11-01 15:59:00
12:03 PM,44.6,42.8,93,29.44,10.0,WSW,9.2,21.9,N/A,Rain,Light Rain,240,2012-11-01 16:03:00
12:06 PM,44.6,42.8,93,29.44,10.0,SW,12.7,21.9,N/A,Rain,Light Rain,230,2012-11-01 16:06:00
12:10 PM,44.6,41.0,87,29.44,10.0,SW,12.7,19.6,N/A,Rain,Light Rain,230,2012-11-01 16:10:00
12:12 PM,42.8,41.0,93,29.44,10.0,WSW,16.1,19.6,N/A,Rain,Light Rain,240,2012-11-01 16:12:00
12:17 PM,42.8,41.0,93,29.44,10.0,WSW,13.8,-,N/A,Rain,Light Rain,240,2012-11-01 16:17:00
12:19 PM,42.8,41.0,93,29.44,10.0,WSW,12.7,-,N/A,Rain,Light Rain,240,2012-11-01 16:19:00
12:48 PM,42.8,41.0,93,29.44,10.0,WSW,12.7,21.9,N/A,Rain,Light Rain,240,2012-11-01 16:48:00
12:55 PM,42.8,40.5,91,29.44,10.0,WSW,10.4,21.9,0.01,Rain,Light Rain,240,2012-11-01 16:55:00
1:13 PM,42.8,41.0,93,29.44,10.0,WSW,15.0,-,N/A,Rain,Light Rain,250,2012-11-01 17:13:00
1:41 PM,42.8,41.0,93,29.45,10.0,WSW,12.7,23.0,N/A,,Light Drizzle,240,2012-11-01 17:41:00
1:48 PM,42.8,41.0,93,29.45,10.0,West,9.2,23.0,N/A,,Light Drizzle,260,2012-11-01 17:48:00
1:54 PM,42.8,39.2,87,29.45,10.0,West,11.5,21.9,N/A,,Light Drizzle,260,2012-11-01 17:54:00
1:55 PM,42.6,39.9,90,29.45,10.0,West,11.5,21.9,0.01,,Light Drizzle,260,2012-11-01 17:55:00
2:03 PM,42.8,41.0,93,29.45,10.0,West,10.4,-,N/A,,Light Drizzle,260,2012-11-01 18:03:00
2:06 PM,42.8,41.0,93,29.45,10.0,West,11.5,19.6,N/A,,Light Drizzle,260,2012-11-01 18:06:00
2:08 PM,42.8,41.0,93,29.45,10.0,West,10.4,19.6,N/A,,Light Drizzle,260,2012-11-01 18:08:00
2:13 PM,42.8,41.0,93,29.45,10.0,WSW,11.5,19.6,N/A,,Light Drizzle,250,2012-11-01 18:13:00
2:15 PM,42.8,41.0,93,29.45,10.0,WSW,10.4,18.4,N/A,,Light Drizzle,250,2012-11-01 18:15:00
2:17 PM,42.8,41.0,93,29.45,10.0,WSW,10.4,18.4,N/A,,Light Drizzle,250,2012-11-01 18:17:00
2:18 PM,42.8,41.0,93,29.45,10.0,WSW,10.4,18.4,N/A,,Light Drizzle,250,2012-11-01 18:18:00
2:19 PM,42.8,41.0,93,29.45,10.0,WSW,10.4,18.4,N/A,,Light Drizzle,250,2012-11-01 18:19:00
2:24 PM,42.8,41.0,93,29.45,10.0,West,10.4,18.4,N/A,,Light Drizzle,260,2012-11-01 18:24:00
2:38 PM,42.8,41.0,93,29.45,10.0,West,13.8,24.2,N/A,Rain,Light Rain,260,2012-11-01 18:38:00
2:55 PM,42.6,39.6,89,29.46,10.0,West,11.5,-,0.00,Rain,Light Rain,260,2012-11-01 18:55:00
2:59 PM,42.8,39.2,87,29.46,10.0,West,9.2,-,N/A,Rain,Light Rain,260,2012-11-01 18:59:00
3:01 PM,42.8,39.2,87,29.46,10.0,WSW,9.2,-,N/A,Rain,Light Rain,250,2012-11-01 19:01:00
3:09 PM,42.8,39.2,87,29.46,10.0,WSW,9.2,-,N/A,Rain,Light Rain,250,2012-11-01 19:09:00
3:32 PM,42.8,39.2,87,29.46,10.0,WSW,8.1,-,N/A,,Light Drizzle,240,2012-11-01 19:32:00
3:55 PM,42.6,40.8,93,29.47,10.0,West,8.1,-,0.01,Rain,Light Rain,260,2012-11-01 19:55:00
4:12 PM,42.8,41.0,93,29.47,10.0,West,9.2,-,N/A,Rain,Light Rain,270,2012-11-01 20:12:00
4:28 PM,42.8,41.0,93,29.47,10.0,West,8.1,-,N/A,Rain,Light Rain,270,2012-11-01 20:28:00
4:55 PM,41.5,39.9,94,29.48,10.0,West,8.1,-,0.02,,Light Drizzle,260,2012-11-01 20:55:00
4:58 PM,41.0,39.2,93,29.48,10.0,WSW,9.2,-,N/A,,Overcast,250,2012-11-01 20:58:00
5:00 PM,41.0,39.2,93,29.48,10.0,WSW,6.9,-,N/A,,Overcast,250,2012-11-01 21:00:00
5:06 PM,41.0,39.2,93,29.48,10.0,WSW,8.1,-,N/A,,Mostly Cloudy,250,2012-11-01 21:06:00
5:18 PM,41.0,41.0,100,29.49,10.0,WSW,11.5,-,N/A,,Light Drizzle,250,2012-11-01 21:18:00
5:32 PM,41.0,41.0,100,29.49,6.0,WSW,6.9,-,N/A,,Light Drizzle,250,2012-11-01 21:32:00
5:44 PM,41.0,41.0,100,29.49,10.0,West,8.1,-,N/A,,Light Drizzle,270,2012-11-01 21:44:00
5:55 PM,41.2,40.3,97,29.49,10.0,West,8.1,-,0.00,,Light Drizzle,260,2012-11-01 21:55:00
6:02 PM,41.0,41.0,100,29.50,9.0,West,6.9,-,N/A,,Light Drizzle,260,2012-11-01 22:02:00
6:44 PM,41.0,41.0,100,29.51,6.0,WSW,8.1,-,N/A,Rain,Rain,250,2012-11-01 22:44:00
6:47 PM,41.0,41.0,100,29.51,7.0,WSW,5.8,-,N/A,Rain,Light Rain,250,2012-11-01 22:47:00
6:53 PM,41.0,41.0,100,29.51,10.0,WSW,8.1,-,N/A,,Light Drizzle,240,2012-11-01 22:53:00
6:54 PM,41.0,41.0,100,29.51,10.0,WSW,6.9,-,N/A,,Light Drizzle,240,2012-11-01 22:54:00
6:55 PM,41.2,40.6,98,29.51,10.0,WSW,6.9,-,0.02,,Light Drizzle,250,2012-11-01 22:55:00
7:05 PM,41.0,41.0,100,29.51,10.0,WSW,8.1,-,N/A,,Light Drizzle,240,2012-11-01 23:05:00
7:12 PM,41.0,41.0,100,29.51,10.0,WSW,8.1,-,N/A,Rain,Light Rain,240,2012-11-01 23:12:00
7:18 PM,41.0,41.0,100,29.51,10.0,WSW,5.8,-,N/A,,Light Drizzle,250,2012-11-01 23:18:00
7:55 PM,41.4,40.6,97,29.52,10.0,WSW,5.8,-,0.01,Rain,Light Rain,250,2012-11-01 23:55:00
8:55 PM,40.8,39.4,95,29.52,10.0,West,10.4,18.4,0.02,Rain,Light Rain,270,2012-11-02 00:55:00
9:55 PM,39.7,37.6,92,29.53,10.0,West,4.6,-,0.01,,Light Drizzle,280,2012-11-02 01:55:00
10:46 PM,39.2,35.6,87,29.54,10.0,Variable,5.8,-,N/A,,Overcast,0,2012-11-02 02:46:00
10:49 PM,39.2,35.6,87,29.54,10.0,West,6.9,-,N/A,,Light Drizzle,260,2012-11-02 02:49:00
10:55 PM,38.8,36.3,91,29.54,10.0,West,5.8,-,0.00,,Light Drizzle,270,2012-11-02 02:55:00
11:00 PM,39.2,35.6,87,29.54,10.0,West,5.8,-,N/A,,Overcast,270,2012-11-02 03:00:00
11:14 PM,39.2,35.6,87,29.54,10.0,West,6.9,-,N/A,,Overcast,280,2012-11-02 03:14:00
11:18 PM,39.2,35.6,87,29.54,10.0,West,8.1,-,N/A,,Overcast,270,2012-11-02 03:18:00
11:24 PM,39.2,35.6,87,29.54,10.0,West,6.9,-,N/A,,Mostly Cloudy,270,2012-11-02 03:24:00
11:25 PM,39.2,35.6,87,29.54,10.0,West,6.9,-,N/A,,Overcast,270,2012-11-02 03:25:00
11:55 PM,38.3,34.9,87,29.55,10.0,Variable,6.9,-,0.00,,Mostly Cloudy,0,2012-11-02 03:55:00